| time (UTC) | temp F | wind direction | speed knots | gust knots | rain 1hr in | rain 24hr in | rain mn in | humidity % | barometer mb |
| 20260505111753 | 74 | 236 | 0.0 | 0.9 | 0.00 | 0.00 | 0.00 | 75 | 1030.0 |
| 20260505111249 | 73 | 239 | 0.0 | 0.0 | 0.00 | 0.00 | 0.00 | 78 | 1029.9 |
| 20260505110745 | 73 | 244 | 0.9 | 0.9 | 0.00 | 0.00 | 0.00 | 77 | 1029.9 |
| 20260505110243 | 72 | 235 | 0.0 | 0.0 | 0.00 | 0.00 | 0.00 | 79 | 1029.8 |
| 20260505102218 | 66 | 238 | 0.0 | 0.9 | 0.00 | 0.00 | 0.00 | 92 | 1029.5 |
| 20260505101717 | 65 | 235 | 0.0 | 0.0 | 0.00 | 0.00 | 0.00 | 93 | 1029.5 |
| 20260505101212 | 65 | 229 | 0.0 | 0.9 | 0.00 | 0.00 | 0.00 | 93 | 1029.6 |
| 20260505100709 | 65 | 169 | 0.0 | 0.0 | 0.00 | 0.00 | 0.00 | 93 | 1029.4 |
| 20260505100206 | 64 | 160 | 0.9 | 1.7 | 0.00 | 0.00 | 0.00 | 94 | 1029.2 |
| 20260505095701 | 64 | 159 | 0.0 | 0.9 | 0.00 | 0.00 | 0.00 | 94 | 1029.3 |
| 20260505095200 | 64 | 158 | 0.0 | 0.9 | 0.00 | 0.00 | 0.00 | 94 | 1029.2 |
| 20260505094655 | 64 | 157 | 0.0 | 0.9 | 0.00 | 0.00 | 0.00 | 94 | 1029.2 |
| 20260505094151 | 64 | 157 | 0.9 | 0.9 | 0.00 | 0.00 | 0.00 | 94 | 1029.2 |
| 20260505093648 | 64 | 157 | 0.0 | 0.9 | 0.00 | 0.00 | 0.00 | 94 | 1029.0 |
| 20260505093145 | 64 | 157 | 0.9 | 0.9 | 0.00 | 0.00 | 0.00 | 94 | 1029.1 |
| 20260505092642 | 64 | 157 | 0.0 | 2.6 | 0.00 | 0.00 | 0.00 | 94 | 1028.8 |
| 20260505092141 | 64 | 157 | 0.0 | 0.0 | 0.00 | 0.00 | 0.00 | 94 | 1028.8 |
| 20260505091638 | 64 | 157 | 0.0 | 0.0 | 0.00 | 0.00 | 0.00 | 94 | 1028.8 |
| 20260505091136 | 64 | 157 | 0.0 | 0.0 | 0.00 | 0.00 | 0.00 | 94 | 1028.8 |
| 20260505090633 | 64 | 157 | 0.0 | 0.0 | 0.00 | 0.00 | 0.00 | 94 | 1028.7 |
| 20260505090131 | 64 | 157 | 0.0 | 0.0 | 0.00 | 0.00 | 0.00 | 94 | 1028.5 |
| 20260505085628 | 64 | 157 | 0.0 | 0.0 | 0.00 | 0.00 | 0.00 | 93 | 1028.7 |
| 20260505085126 | 64 | 157 | 0.0 | 0.0 | 0.00 | 0.00 | 0.00 | 93 | 1028.5 |
| 20260505084623 | 64 | 157 | 0.0 | 0.0 | 0.00 | 0.00 | 0.00 | 93 | 1028.6 |
| 20260505084122 | 64 | 157 | 0.0 | 0.0 | 0.00 | 0.00 | 0.00 | 93 | 1028.6 |
| 20260505083619 | 65 | 157 | 0.0 | 0.9 | 0.00 | 0.00 | 0.00 | 93 | 1028.3 |
| 20260505083115 | 65 | 157 | 0.0 | 0.9 | 0.00 | 0.00 | 0.00 | 93 | 1028.2 |
| 20260505082611 | 64 | 157 | 0.9 | 0.9 | 0.00 | 0.00 | 0.00 | 93 | 1028.3 |
| 20260505082109 | 64 | 157 | 0.0 | 0.0 | 0.00 | 0.00 | 0.00 | 93 | 1028.2 |
| 20260505081604 | 65 | 157 | 0.0 | 0.0 | 0.00 | 0.00 | 0.00 | 93 | 1028.1 |
| 20260505081102 | 65 | 157 | 0.0 | 1.7 | 0.00 | 0.00 | 0.00 | 93 | 1028.1 |
| 20260505080558 | 65 | 157 | 0.0 | 0.0 | 0.00 | 0.00 | 0.00 | 93 | 1028.0 |
| 20260505080055 | 64 | 157 | 0.0 | 0.0 | 0.00 | 0.00 | 0.00 | 93 | 1028.0 |
| 20260505075550 | 65 | 157 | 0.0 | 0.0 | 0.00 | 0.00 | 0.00 | 93 | 1028.1 |
| 20260505075048 | 65 | 157 | 0.0 | 0.0 | 0.00 | 0.00 | 0.00 | 92 | 1028.1 |
| 20260505074544 | 65 | 157 | 0.0 | 0.0 | 0.00 | 0.00 | 0.00 | 92 | 1028.0 |
| 20260505074042 | 65 | 157 | 0.0 | 0.0 | 0.00 | 0.00 | 0.00 | 92 | 1028.0 |
| 20260505073539 | 65 | 157 | 0.0 | 0.0 | 0.00 | 0.00 | 0.00 | 92 | 1028.0 |
| 20260505073038 | 65 | 157 | 0.9 | 0.9 | 0.00 | 0.00 | 0.00 | 92 | 1028.1 |
| 20260505072533 | 65 | 157 | 0.9 | 1.7 | 0.00 | 0.00 | 0.00 | 92 | 1028.1 |
| 20260505072029 | 65 | 157 | 1.7 | 2.6 | 0.00 | 0.00 | 0.00 | 92 | 1028.3 |
| 20260505071524 | 65 | 157 | 0.0 | 1.7 | 0.00 | 0.00 | 0.00 | 92 | 1028.3 |
| 20260505071023 | 65 | 157 | 0.0 | 0.0 | 0.00 | 0.00 | 0.00 | 92 | 1028.2 |
| 20260505070520 | 65 | 157 | 0.0 | 0.9 | 0.00 | 0.00 | 0.00 | 92 | 1028.1 |
| 20260505070016 | 65 | 157 | 0.0 | 0.9 | 0.00 | 0.00 | 0.00 | 92 | 1028.2 |
| 20260505065512 | 65 | 157 | 0.0 | 0.9 | 0.00 | 0.00 | 0.00 | 92 | 1028.2 |
| 20260505065008 | 65 | 157 | 0.0 | 0.0 | 0.00 | 0.00 | 0.00 | 92 | 1028.3 |
| 20260505064505 | 65 | 157 | 0.0 | 0.0 | 0.00 | 0.00 | 0.00 | 92 | 1028.4 |
| 20260505064004 | 66 | 157 | 0.0 | 0.0 | 0.00 | 0.00 | 0.00 | 92 | 1028.3 |
| 20260505063501 | 65 | 157 | 0.0 | 0.9 | 0.00 | 0.00 | 0.00 | 92 | 1028.5 |
| 20260505062957 | 66 | 157 | 0.0 | 0.0 | 0.00 | 0.00 | 0.00 | 92 | 1028.4 |
| 20260505062454 | 66 | 158 | 0.0 | 0.0 | 0.00 | 0.00 | 0.00 | 92 | 1028.6 |
| 20260505061951 | 66 | 158 | 0.9 | 2.6 | 0.00 | 0.00 | 0.00 | 92 | 1028.5 |
| 20260505061449 | 66 | 158 | 0.0 | 0.9 | 0.00 | 0.00 | 0.00 | 92 | 1028.4 |
| 20260505060946 | 66 | 158 | 0.0 | 0.0 | 0.00 | 0.00 | 0.00 | 92 | 1028.4 |
| 20260505060443 | 66 | 158 | 0.0 | 1.7 | 0.00 | 0.00 | 0.00 | 92 | 1028.5 |
| 20260505055939 | 65 | 158 | 0.0 | 0.0 | 0.00 | 0.00 | 0.00 | 92 | 1028.6 |
| 20260505055435 | 65 | 158 | 0.0 | 0.0 | 0.00 | 0.00 | 0.00 | 92 | 1028.6 |
| 20260505054932 | 66 | 158 | 0.0 | 0.0 | 0.00 | 0.00 | 0.00 | 92 | 1028.5 |
| 20260505054430 | 66 | 158 | 0.0 | 0.0 | 0.00 | 0.00 | 0.00 | 92 | 1028.4 |
| 20260505053928 | 65 | 158 | 0.0 | 0.0 | 0.00 | 0.00 | 0.00 | 92 | 1028.4 |
| 20260505053425 | 66 | 158 | 0.0 | 0.0 | 0.00 | 0.00 | 0.00 | 92 | 1028.5 |
| 20260505052921 | 66 | 158 | 0.0 | 0.0 | 0.00 | 0.00 | 0.00 | 92 | 1028.5 |
| 20260505052418 | 66 | 158 | 0.0 | 0.0 | 0.00 | 0.00 | 0.00 | 92 | 1028.5 |
| 20260505051915 | 66 | 158 | 0.0 | 0.0 | 0.00 | 0.00 | 0.00 | 91 | 1028.7 |
| 20260505051412 | 66 | 158 | 0.0 | 1.7 | 0.00 | 0.00 | 0.00 | 91 | 1028.5 |
| 20260505050910 | 66 | 158 | 0.0 | 0.0 | 0.00 | 0.00 | 0.00 | 91 | 1028.6 |
| 20260505050408 | 66 | 158 | 0.0 | 0.9 | 0.00 | 0.00 | 0.00 | 91 | 1028.6 |
| 20260505041330 | 67 | 159 | 0.0 | 0.0 | 0.00 | 0.00 | 0.00 | 91 | 1029.1 |
| 20260505040827 | 67 | 159 | 0.9 | 1.7 | 0.00 | 0.00 | 0.00 | 91 | 1029.0 |
| 20260505040325 | 67 | 159 | 0.9 | 2.6 | 0.00 | 0.00 | 0.00 | 91 | 1029.1 |
| 20260505035821 | 66 | 159 | 0.0 | 0.9 | 0.00 | 0.00 | 0.00 | 91 | 1029.3 |
| 20260505035316 | 67 | 159 | 0.0 | 0.0 | 0.00 | 0.00 | 0.00 | 91 | 1029.1 |
| 20260505034814 | 67 | 159 | 0.9 | 2.6 | 0.00 | 0.00 | 0.00 | 91 | 1029.2 |
| 20260505034311 | 66 | 160 | 0.0 | 0.9 | 0.00 | 0.00 | 0.00 | 91 | 1029.2 |
| 20260505033808 | 66 | 160 | 0.9 | 0.9 | 0.00 | 0.00 | 0.00 | 92 | 1029.2 |
| 20260505033305 | 66 | 160 | 0.0 | 0.9 | 0.00 | 0.00 | 0.00 | 92 | 1029.1 |
| 20260505032803 | 66 | 160 | 0.0 | 0.0 | 0.00 | 0.00 | 0.00 | 92 | 1029.2 |
| 20260505032259 | 66 | 160 | 0.0 | 0.0 | 0.00 | 0.00 | 0.00 | 92 | 1029.1 |
| 20260505031756 | 66 | 160 | 0.0 | 0.0 | 0.00 | 0.00 | 0.00 | 92 | 1029.2 |
| 20260505031252 | 66 | 160 | 0.0 | 0.0 | 0.00 | 0.00 | 0.00 | 92 | 1029.0 |
| 20260505030749 | 66 | 160 | 0.0 | 0.0 | 0.00 | 0.00 | 0.00 | 92 | 1029.2 |
| 20260505030246 | 66 | 160 | 0.0 | 0.0 | 0.00 | 0.00 | 0.00 | 92 | 1029.2 |
| 20260505025741 | 66 | 160 | 0.0 | 0.0 | 0.00 | 0.00 | 0.00 | 92 | 1029.1 |
| 20260505025240 | 66 | 160 | 0.0 | 0.0 | 0.00 | 0.00 | 0.00 | 92 | 1029.1 |
| 20260505024738 | 66 | 160 | 0.0 | 0.0 | 0.00 | 0.00 | 0.00 | 92 | 1029.1 |
| 20260505024234 | 66 | 160 | 0.0 | 0.0 | 0.00 | 0.00 | 0.00 | 92 | 1029.1 |
| 20260505023732 | 66 | 160 | 0.0 | 0.0 | 0.00 | 0.00 | 0.00 | 92 | 1029.1 |
| 20260505023229 | 66 | 160 | 0.0 | 0.0 | 0.00 | 0.00 | 0.00 | 91 | 1029.2 |
| 20260505022726 | 66 | 160 | 0.0 | 0.0 | 0.00 | 0.00 | 0.00 | 91 | 1029.2 |
| 20260505022223 | 66 | 160 | 0.0 | 0.0 | 0.00 | 0.00 | 0.00 | 91 | 1029.0 |
| 20260505021720 | 66 | 160 | 0.0 | 0.0 | 0.00 | 0.00 | 0.00 | 91 | 1029.1 |
| 20260505021217 | 66 | 160 | 0.0 | 0.0 | 0.00 | 0.00 | 0.00 | 90 | 1029.1 |
| 20260505020712 | 66 | 160 | 0.0 | 0.0 | 0.00 | 0.00 | 0.00 | 91 | 1029.2 |
| 20260505020208 | 66 | 160 | 0.0 | 0.0 | 0.00 | 0.00 | 0.00 | 91 | 1029.1 |
| 20260505015706 | 66 | 160 | 0.0 | 0.0 | 0.00 | 0.00 | 0.00 | 91 | 1029.2 |
| 20260505015202 | 66 | 160 | 0.0 | 0.9 | 0.00 | 0.00 | 0.00 | 91 | 1029.2 |
| 20260505014659 | 66 | 160 | 0.0 | 0.0 | 0.00 | 0.00 | 0.00 | 91 | 1029.1 |
| 20260505014156 | 66 | 160 | 0.0 | 0.0 | 0.00 | 0.00 | 0.00 | 91 | 1029.0 |
| 20260505013654 | 66 | 160 | 0.0 | 0.0 | 0.00 | 0.00 | 0.00 | 91 | 1029.3 |
| 20260505013150 | 66 | 160 | 0.0 | 0.0 | 0.00 | 0.00 | 0.00 | 91 | 1029.0 |
| 20260505012649 | 66 | 160 | 0.0 | 0.0 | 0.00 | 0.00 | 0.00 | 91 | 1029.3 |
| 20260505012146 | 66 | 160 | 0.0 | 0.0 | 0.00 | 0.00 | 0.00 | 91 | 1029.1 |
| 20260505011641 | 66 | 160 | 0.0 | 0.0 | 0.00 | 0.00 | 0.00 | 91 | 1029.1 |
| 20260505011139 | 66 | 161 | 0.0 | 0.9 | 0.00 | 0.00 | 0.00 | 91 | 1029.0 |
| 20260505010634 | 66 | 167 | 0.0 | 0.0 | 0.00 | 0.00 | 0.00 | 91 | 1029.2 |
| 20260505010131 | 66 | 176 | 0.0 | 0.0 | 0.00 | 0.00 | 0.00 | 91 | 1029.2 |
| 20260505005627 | 66 | 185 | 0.0 | 0.0 | 0.00 | 0.00 | 0.00 | 91 | 1029.3 |
| 20260505005124 | 66 | 195 | 0.0 | 0.0 | 0.00 | 0.00 | 0.00 | 91 | 1029.4 |
| 20260505004621 | 66 | 202 | 0.0 | 0.0 | 0.00 | 0.00 | 0.00 | 91 | 1029.2 |
| 20260505004118 | 66 | 210 | 0.0 | 0.0 | 0.00 | 0.00 | 0.00 | 90 | 1029.3 |
| 20260505003615 | 66 | 214 | 0.0 | 0.0 | 0.00 | 0.00 | 0.00 | 90 | 1029.2 |
| 20260505003112 | 66 | 219 | 0.0 | 0.0 | 0.00 | 0.00 | 0.00 | 90 | 1029.2 |
| 20260505002607 | 66 | 221 | 0.0 | 0.0 | 0.00 | 0.00 | 0.00 | 90 | 1029.3 |
| 20260505002101 | 66 | 223 | 0.0 | 0.0 | 0.00 | 0.00 | 0.00 | 90 | 1029.0 |
| 20260505001558 | 66 | 226 | 0.0 | 0.0 | 0.00 | 0.00 | 0.00 | 90 | 1028.8 |
| 20260505001055 | 66 | 227 | 0.0 | 0.0 | 0.00 | 0.00 | 0.00 | 90 | 1029.0 |
| 20260505000552 | 66 | 227 | 0.0 | 0.0 | 0.00 | 0.00 | 0.00 | 90 | 1029.0 |
| 20260505000050 | 66 | 228 | 0.0 | 0.0 | 0.00 | 0.00 | 0.00 | 90 | 1029.1 |
| 20260504235546 | 66 | 229 | 0.0 | 0.0 | 0.00 | 0.00 | 0.00 | 89 | 1028.8 |
| 20260504235043 | 67 | 229 | 0.0 | 0.0 | 0.00 | 0.00 | 0.00 | 89 | 1029.0 |
| 20260504234540 | 67 | 229 | 0.0 | 0.0 | 0.00 | 0.00 | 0.00 | 89 | 1028.7 |
| 20260504234037 | 67 | 229 | 0.0 | 0.0 | 0.00 | 0.00 | 0.00 | 89 | 1028.7 |
| 20260504233532 | 67 | 230 | 0.0 | 0.0 | 0.00 | 0.00 | 0.00 | 89 | 1028.7 |
| 20260504233029 | 67 | 230 | 0.9 | 0.9 | 0.00 | 0.00 | 0.00 | 89 | 1028.7 |
| 20260504232526 | 67 | 234 | 0.0 | 0.0 | 0.00 | 0.00 | 0.00 | 89 | 1028.8 |
| 20260504232024 | 67 | 234 | 0.0 | 0.0 | 0.00 | 0.00 | 0.00 | 89 | 1028.7 |
| 20260504231521 | 67 | 232 | 0.9 | 0.9 | 0.00 | 0.00 | 0.00 | 89 | 1028.7 |
| 20260504231017 | 67 | 234 | 0.0 | 0.0 | 0.00 | 0.00 | 0.00 | 89 | 1028.6 |
| 20260504230513 | 67 | 234 | 0.0 | 0.0 | 0.00 | 0.00 | 0.00 | 89 | 1028.6 |
| 20260504230012 | 67 | 230 | 0.0 | 1.7 | 0.00 | 0.00 | 0.00 | 89 | 1028.2 |
| 20260504225509 | 67 | 232 | 0.0 | 0.9 | 0.00 | 0.00 | 0.00 | 88 | 1028.1 |
| 20260504225006 | 68 | 231 | 0.0 | 0.9 | 0.00 | 0.00 | 0.00 | 88 | 1028.2 |
| 20260504224503 | 68 | 236 | 0.0 | 0.0 | 0.00 | 0.00 | 0.00 | 88 | 1028.2 |
| 20260504223959 | 68 | 236 | 0.0 | 0.0 | 0.00 | 0.00 | 0.00 | 88 | 1028.0 |
| 20260504223456 | 68 | 231 | 0.0 | 0.0 | 0.00 | 0.00 | 0.00 | 88 | 1028.1 |
| 20260504222951 | 68 | 232 | 0.0 | 0.0 | 0.00 | 0.00 | 0.00 | 88 | 1028.0 |
| 20260504222449 | 68 | 235 | 0.0 | 0.9 | 0.00 | 0.00 | 0.00 | 88 | 1028.2 |
| 20260504221946 | 68 | 237 | 0.0 | 0.9 | 0.00 | 0.00 | 0.00 | 88 | 1027.9 |
| 20260504221444 | 68 | 238 | 0.0 | 0.0 | 0.00 | 0.00 | 0.00 | 88 | 1027.9 |
| 20260504220941 | 68 | 238 | 0.0 | 0.0 | 0.00 | 0.00 | 0.00 | 88 | 1027.7 |
| 20260504220437 | 68 | 238 | 0.0 | 0.0 | 0.00 | 0.00 | 0.00 | 88 | 1027.6 |
| 20260504215934 | 68 | 239 | 0.0 | 0.0 | 0.00 | 0.00 | 0.00 | 88 | 1027.3 |
| 20260504215431 | 68 | 234 | 0.0 | 0.0 | 0.00 | 0.00 | 0.00 | 88 | 1027.6 |
| 20260504214927 | 68 | 233 | 0.0 | 0.0 | 0.00 | 0.00 | 0.00 | 87 | 1027.4 |
| 20260504214424 | 68 | 233 | 0.0 | 0.0 | 0.00 | 0.00 | 0.00 | 87 | 1027.3 |
| 20260504213920 | 68 | 238 | 0.0 | 0.9 | 0.00 | 0.00 | 0.00 | 87 | 1027.4 |
| 20260504213416 | 68 | 233 | 0.0 | 0.0 | 0.00 | 0.00 | 0.00 | 87 | 1027.2 |
| 20260504212914 | 68 | 239 | 0.0 | 0.9 | 0.00 | 0.00 | 0.00 | 87 | 1027.2 |
| 20260504212409 | 68 | 235 | 0.0 | 1.7 | 0.00 | 0.00 | 0.00 | 87 | 1027.2 |
| 20260504211908 | 68 | 239 | 0.0 | 0.0 | 0.00 | 0.00 | 0.00 | 86 | 1027.2 |
| 20260504211404 | 69 | 239 | 0.0 | 0.9 | 0.00 | 0.00 | 0.00 | 86 | 1027.1 |
| 20260504210901 | 69 | 240 | 0.0 | 2.6 | 0.00 | 0.00 | 0.00 | 86 | 1027.3 |
| 20260504210358 | 69 | 243 | 0.9 | 0.9 | 0.00 | 0.00 | 0.00 | 86 | 1027.0 |
| 20260504205855 | 69 | 241 | 0.0 | 0.9 | 0.00 | 0.00 | 0.00 | 85 | 1027.1 |
| 20260504205353 | 69 | 247 | 0.9 | 0.9 | 0.00 | 0.00 | 0.00 | 85 | 1026.9 |
| 20260504204851 | 70 | 238 | 0.0 | 0.9 | 0.00 | 0.00 | 0.00 | 84 | 1026.8 |
| 20260504204349 | 70 | 236 | 0.0 | 0.9 | 0.00 | 0.00 | 0.00 | 84 | 1026.7 |
| 20260504203848 | 70 | 243 | 0.0 | 0.9 | 0.00 | 0.00 | 0.00 | 83 | 1026.6 |
| 20260504203344 | 71 | 238 | 0.0 | 4.3 | 0.00 | 0.00 | 0.00 | 83 | 1026.8 |
| 20260504202840 | 71 | 236 | 0.0 | 1.7 | 0.00 | 0.00 | 0.00 | 82 | 1026.7 |
| 20260504202338 | 72 | 242 | 0.0 | 1.7 | 0.00 | 0.00 | 0.00 | 81 | 1026.5 |
| 20260504201834 | 72 | 241 | 0.9 | 1.7 | 0.00 | 0.00 | 0.00 | 81 | 1026.7 |
| 20260504201332 | 72 | 239 | 1.7 | 2.6 | 0.00 | 0.00 | 0.00 | 80 | 1026.7 |
| 20260504200829 | 73 | 236 | 1.7 | 4.3 | 0.00 | 0.00 | 0.00 | 79 | 1026.6 |
| 20260504200325 | 74 | 242 | 0.9 | 1.7 | 0.00 | 0.00 | 0.00 | 78 | 1026.5 |
| 20260504195822 | 74 | 245 | 0.9 | 4.3 | 0.00 | 0.00 | 0.00 | 77 | 1026.4 |
| 20260504195317 | 75 | 237 | 0.0 | 0.9 | 0.00 | 0.00 | 0.00 | 75 | 1026.5 |
| 20260504194814 | 77 | 224 | 1.7 | 2.6 | 0.00 | 0.00 | 0.00 | 73 | 1026.3 |
| 20260504194310 | 79 | 247 | 0.9 | 6.1 | 0.00 | 0.00 | 0.00 | 67 | 1026.1 |
| 20260504193807 | 79 | 244 | 0.9 | 0.9 | 0.00 | 0.00 | 0.00 | 63 | 1026.1 |
| 20260504193304 | 80 | 237 | 0.0 | 0.0 | 0.00 | 0.00 | 0.00 | 63 | 1026.0 |
| 20260504192803 | 80 | 242 | 0.0 | 0.9 | 0.00 | 0.00 | 0.00 | 62 | 1025.9 |
| 20260504192300 | 80 | 238 | 0.0 | 0.9 | 0.00 | 0.00 | 0.00 | 62 | 1025.9 |
| 20260504191759 | 80 | 238 | 0.0 | 0.9 | 0.00 | 0.00 | 0.00 | 61 | 1026.0 |
| 20260504191256 | 80 | 239 | 0.9 | 0.9 | 0.00 | 0.00 | 0.00 | 61 | 1026.1 |
| 20260504190751 | 81 | 242 | 0.0 | 0.9 | 0.00 | 0.00 | 0.00 | 60 | 1026.0 |
| 20260504190248 | 81 | 241 | 0.0 | 0.0 | 0.00 | 0.00 | 0.00 | 61 | 1025.9 |
| 20260504185744 | 81 | 239 | 0.0 | 2.6 | 0.00 | 0.00 | 0.00 | 60 | 1025.9 |
| 20260504185241 | 81 | 236 | 0.0 | 0.9 | 0.00 | 0.00 | 0.00 | 60 | 1025.8 |
| 20260504184737 | 81 | 235 | 0.0 | 0.0 | 0.00 | 0.00 | 0.00 | 61 | 1025.8 |
| 20260504184233 | 81 | 235 | 0.0 | 0.9 | 0.00 | 0.00 | 0.00 | 62 | 1025.7 |
| 20260504183729 | 81 | 237 | 0.9 | 0.9 | 0.00 | 0.00 | 0.00 | 61 | 1025.7 |
| 20260504183226 | 80 | 236 | 0.0 | 0.9 | 0.00 | 0.00 | 0.00 | 62 | 1025.7 |
| 20260504182724 | 80 | 237 | 0.0 | 0.9 | 0.00 | 0.00 | 0.00 | 61 | 1025.6 |
| 20260504182221 | 81 | 240 | 0.0 | 0.9 | 0.00 | 0.00 | 0.00 | 60 | 1025.9 |
| 20260504181719 | 82 | 236 | 0.0 | 1.7 | 0.00 | 0.00 | 0.00 | 59 | 1025.7 |
| 20260504181216 | 82 | 231 | 0.9 | 0.9 | 0.00 | 0.00 | 0.00 | 58 | 1025.8 |
| 20260504180715 | 82 | 234 | 0.9 | 0.9 | 0.00 | 0.00 | 0.00 | 58 | 1025.8 |
| 20260504180213 | 82 | 244 | 0.9 | 0.9 | 0.00 | 0.00 | 0.00 | 58 | 1025.9 |
| 20260504175710 | 83 | 241 | 0.0 | 0.9 | 0.00 | 0.00 | 0.00 | 57 | 1026.0 |
| 20260504175207 | 85 | 241 | 0.0 | 0.9 | 0.00 | 0.00 | 0.00 | 56 | 1025.8 |
| 20260504174705 | 85 | 241 | 0.0 | 0.0 | 0.00 | 0.00 | 0.00 | 55 | 1025.8 |
| 20260504174203 | 84 | 242 | 0.0 | 0.9 | 0.00 | 0.00 | 0.00 | 57 | 1026.0 |
| 20260504173659 | 83 | 236 | 0.9 | 0.9 | 0.00 | 0.00 | 0.00 | 57 | 1025.9 |
| 20260504173156 | 82 | 241 | 0.0 | 0.9 | 0.00 | 0.00 | 0.00 | 59 | 1026.0 |
| 20260504172652 | 81 | 244 | 0.0 | 1.7 | 0.00 | 0.00 | 0.00 | 60 | 1026.1 |
| 20260504172149 | 80 | 239 | 0.0 | 0.0 | 0.00 | 0.00 | 0.00 | 62 | 1026.0 |
| 20260504171645 | 80 | 238 | 0.0 | 0.0 | 0.00 | 0.00 | 0.00 | 62 | 1026.3 |
| 20260504171143 | 80 | 237 | 0.9 | 0.9 | 0.00 | 0.00 | 0.00 | 61 | 1026.3 |
| 20260504170639 | 80 | 236 | 0.0 | 0.0 | 0.00 | 0.00 | 0.00 | 62 | 1026.3 |
| 20260504170137 | 81 | 236 | 0.0 | 0.0 | 0.00 | 0.00 | 0.00 | 60 | 1026.4 |
| 20260504151016 | 79 | 234 | 0.9 | 0.9 | 0.00 | 0.00 | 0.00 | 62 | 1028.0 |
| 20260504150514 | 78 | 236 | 0.9 | 2.6 | 0.00 | 0.00 | 0.00 | 64 | 1028.3 |
| 20260504140934 | 75 | 236 | 0.9 | 1.7 | 0.00 | 0.00 | 0.00 | 68 | 1029.1 |
| 20260504140430 | 73 | 237 | 0.0 | 0.9 | 0.00 | 0.00 | 0.00 | 69 | 1029.1 |
| 20260504130355 | 70 | 260 | 1.7 | 4.3 | 0.00 | 0.00 | 0.00 | 74 | 1029.4 |
| 20260504120318 | 68 | 293 | 0.9 | 2.6 | 0.00 | 0.00 | 0.00 | 79 | 1029.9 |